Location: Christianberg
(48.9086°N, 14.0209°E)
Time: 22:24:42
(UTC+00:00)

UNK - Pass Details

Date: 20 June 2021
Orbit: 666 x 686 km, 98.2° (Epoch: 04 August)

Event Time Altitude Azimuth Distance (km) Brightness Sun altitude
Exits shadow 00:54:24 16° 173° (S) 1,739 5.4 -13.7°
Maximum altitude 00:58:05 74° 257° (WSW) 706 3.7 -13.4°
Drops below altitude 10° 01:02:45 10° 343° (NNW) 2,128 7.0 -13.1°
Sets 01:05:00 0° 345° (NNW) 3,051 7.9 -12.9°
